Regional Weather Roundup
Issued by NWS

Home | Current Version | Previous Version | Graphics & Text | Print | Product List | Glossary On
Versions: 1 2 3 4 5 6 7 8 9 10 11 12 13 14 15 16 17 18 19 20 21 22 23 24 25 26 27 28 29 30 31 32 33 34 35 36 37 38 39 40 41 42 43 44 45 46 47 48 49 50
000
ASUS43 KIND 192109
RWRIN

WEATHER ROUNDUP FOR INDIANA
NATIONAL WEATHER SERVICE INDIANAPOLIS IN
400 PM EST THU JAN 19 2017

NOTE: "FAIR" INDICATES FEW OR NO CLOUDS BELOW 12,000 FEET WITH NO
SIGNIFICANT WEATHER AND/OR OBSTRUCTIONS TO VISIBILITY.

* - STATION DOES NOT REPORT WEATHER SUCH AS PRECIPITATION OR FOG.

+ - STATION NOT QUALITY CONTROLLED BY THE NATIONAL WEATHER SERVICE.
    USE DATA WITH CAUTION...ESPECIALLY DEWPOINT AND RELATIVE
    HUMIDITY OBSERVATIONS.

INZ001>003-010>013-019-020-192200-
NORTHWEST INDIANA

CITY           SKY/WX    TMP DP  RH WIND       PRES   REMARKS
GARY /AIRPORT/ CLOUDY    43  36  75 E9        29.90F HAZE
KNOX *+        CLOUDY    37  25  60 E8        29.90F
LA PORTE +     MOSUNNY   38  37  94 E8        29.91F FOG
MICHIGAN CITY+ CLOUDY    39  37  93 E6        29.91F FOG
MONTICELLO +   CLOUDY    40  36  86 E6        29.89F
RENSSELAER +   CLOUDY    41  37  87 E9        29.88F FOG
VALPARAISO     CLOUDY    40  37  89 E8        29.90F FOG

$$

LMZ046-743>745-192200-
SOUTHERN LAKE MICHIGAN

STATION/POSITION TIME  TEMP    WIND        PRES    WAVE
                       AIR SEA DIR/SP/G            HT
                 (UTC) (F)     (DEG/KT/KT) (MB)    (FT)
BURNS HARBOR     2040   40     160/  3/  5 1013.5F
MICHIGAN CITY    2040   40      90/  7/  8   N/A

$$

INZ004-005-014>016-021>024-192200-
NORTH CENTRAL INDIANA

CITY           SKY/WX    TMP DP  RH WIND       PRES   REMARKS
ELKHART        PTSUNNY   39  36  87 E6        29.93F
GOSHEN         CLOUDY    40  34  79 SE5       29.94F HAZE
LOGANSPORT +   CLOUDY    39  36  87 E8        29.90F
PERU/GRISSOM   CLOUDY    40  40  99 E9        29.89F
ROCHESTER +    CLOUDY    41  37  87 E7        29.92F FOG
SOUTH BEND     CLOUDY    38  35  89 E8        29.93F
WARSAW +       CLOUDY    37  32  81 E8        29.91F HAZE

$$

INZ006>009-017-018-025>027-192200-
NORTHEAST INDIANA

CITY           SKY/WX    TMP DP  RH WIND       PRES   REMARKS
ANGOLA *+      CLOUDY    36  36 100 SE6       29.94S
AUBURN +       CLOUDY    37  34  87 E3        29.96S
FORT WAYNE     CLOUDY    41  35  79 E9        29.94S
HUNTINGTON +   PTSUNNY   39  37  93 E6        29.92F
KENDALLVILLE + CLOUDY    37  35  91 E7        29.95S FOG

$$

INZ028-029-035-036-043>045-051>053-192200-
WEST CENTRAL INDIANA

CITY           SKY/WX    TMP DP  RH WIND       PRES   REMARKS
CRAWFORDSVL +  CLOUDY    42  42 100 E7        29.85F
GREENCASTLE +  CLOUDY    43  41  93 E8        29.84F FOG
LAFAYETTE      LGT RAIN  42  39  89 E8        29.86F FOG
TERRE HAUTE    LGT RAIN  46  41  82 E8        29.82F

$$

INZ030>032-037>040-046>048-054>057-064-065-192200-
CENTRAL INDIANA

CITY           SKY/WX    TMP DP  RH WIND       PRES   REMARKS
ANDERSON       MOSUNNY   45  39  81 E6        29.90F
CP ATTERBURY + LGT RAIN  45  41  87 E7        29.87F
COLUMBUS       LGT RAIN  46  43  87 E9        29.88F
FISHERS *+     CLOUDY    43  41  93 CALM      29.87F
FRANKFORT +    LGT RAIN  45  41  87 E9        29.87F
INDIANAPOLIS   CLOUDY    46  39  76 E10       29.86F
-EAGLE CREEK   CLOUDY    47  38  71 E9        29.85F
KOKOMO +       PTSUNNY   41  38  89 E8        29.91F
MARION +       PTSUNNY   41  37  87 E8        29.91F
MT COMFORT *+  CLOUDY    45  39  81 E9        29.88F
SHELBYVILLE    LGT RAIN  47  40  76 E13       29.86F
ZIONSVILLE +   LGT RAIN  43  40  88 E8        29.87F

$$

INZ033-034-041-042-049-050-058-059-192200-
EAST CENTRAL INDIANA

CITY           SKY/WX    TMP DP  RH WIND       PRES   REMARKS
MUNCIE         PTSUNNY   45  40  82 E8        29.90F

$$

INZ060-061-067>069-081>083-085>088-192200-
SOUTHWEST INDIANA

CITY           SKY/WX    TMP DP  RH WIND       PRES   REMARKS
EVANSVILLE     LGT RAIN  49  45  86 E7        29.79F
HUNTINGBURG *+ CLOUDY    48  46  93 E7        29.81F
WASHINGTON +   RAIN      47  44  91 E9        29.82S

$$

INZ062-063-066-070>080-084-089>092-192200-
SOUTH CENTRAL AND SOUTHEAST INDIANA

CITY           SKY/WX    TMP DP  RH WIND       PRES   REMARKS
BLOOMINGTON    CLOUDY    48  37  65 E10       29.82F
MADISON *+     CLOUDY    50  41  71 E5        29.89F
NORTH VERNON + CLOUDY    50  37  62 E6        29.89F
SEYMOUR +      CLOUDY    50  39  66 E7        29.86F

$$





USA.gov is the U.S. government's official web portal to all federal, state and local government web resources and services.